| time (UTC) | temp F | wind direction | speed MPH | gust MPH | rain 1hr in | rain 24hr in | rain mn in | humidity % | barometer mb |
| 20260504034630 | 69 | 217 | 2.0 | 3.0 | 0.00 | 0.00 | 0.00 | 56 | 1020.6 |
| 20260504034126 | 68 | 221 | 3.0 | 5.0 | 0.00 | 0.00 | 0.00 | 56 | 1020.8 |
| 20260504033624 | 68 | 213 | 3.0 | 3.0 | 0.00 | 0.00 | 0.00 | 56 | 1020.7 |
| 20260504033121 | 68 | 205 | 0.0 | 1.0 | 0.00 | 0.00 | 0.00 | 56 | 1020.8 |
| 20260504032618 | 68 | 213 | 0.0 | 0.0 | 0.00 | 0.00 | 0.00 | 57 | 1020.7 |
| 20260504032115 | 68 | 211 | 0.0 | 0.0 | 0.00 | 0.00 | 0.00 | 57 | 1020.7 |
| 20260504031612 | 67 | 210 | 1.0 | 1.0 | 0.00 | 0.00 | 0.00 | 57 | 1020.5 |
| 20260504031108 | 67 | 210 | 1.0 | 1.0 | 0.00 | 0.00 | 0.00 | 57 | 1020.5 |
| 20260504030605 | 66 | 210 | 0.0 | 1.0 | 0.00 | 0.00 | 0.00 | 58 | 1020.7 |
| 20260504025559 | 67 | 210 | 0.0 | 0.0 | 0.00 | 0.00 | 0.00 | 57 | 1020.7 |
| 20260504025055 | 67 | 210 | 0.0 | 0.0 | 0.00 | 0.00 | 0.00 | 57 | 1020.6 |
| 20260504024553 | 68 | 210 | 0.0 | 0.0 | 0.00 | 0.00 | 0.00 | 57 | 1020.4 |
| 20260504024049 | 68 | 209 | 0.0 | 0.0 | 0.00 | 0.00 | 0.00 | 56 | 1020.5 |
| 20260504023546 | 68 | 209 | 0.0 | 0.0 | 0.00 | 0.00 | 0.00 | 56 | 1020.6 |
| 20260504023042 | 69 | 209 | 0.0 | 0.0 | 0.00 | 0.00 | 0.00 | 55 | 1020.6 |
| 20260504022538 | 69 | 209 | 0.0 | 0.0 | 0.00 | 0.00 | 0.00 | 56 | 1020.6 |
| 20260504022034 | 68 | 209 | 1.0 | 1.0 | 0.00 | 0.00 | 0.00 | 55 | 1020.5 |
| 20260504021532 | 68 | 208 | 1.0 | 1.0 | 0.00 | 0.00 | 0.00 | 56 | 1020.5 |
| 20260504021029 | 68 | 208 | 0.0 | 0.0 | 0.00 | 0.00 | 0.00 | 57 | 1020.3 |
| 20260504020526 | 68 | 209 | 0.0 | 0.0 | 0.00 | 0.00 | 0.00 | 56 | 1020.5 |
| 20260504020022 | 68 | 209 | 0.0 | 0.0 | 0.00 | 0.00 | 0.00 | 56 | 1020.3 |
| 20260504015519 | 69 | 208 | 0.0 | 0.0 | 0.00 | 0.00 | 0.00 | 56 | 1020.2 |
| 20260504015015 | 69 | 209 | 0.0 | 0.0 | 0.00 | 0.00 | 0.00 | 55 | 1020.3 |
| 20260504014511 | 69 | 208 | 0.0 | 0.0 | 0.00 | 0.00 | 0.00 | 55 | 1020.3 |
| 20260504014008 | 70 | 208 | 0.0 | 0.0 | 0.00 | 0.00 | 0.00 | 53 | 1020.1 |
| 20260504013506 | 70 | 208 | 0.0 | 0.0 | 0.00 | 0.00 | 0.00 | 52 | 1020.2 |
| 20260504013002 | 71 | 208 | 0.0 | 0.0 | 0.00 | 0.00 | 0.00 | 52 | 1019.8 |
| 20260504012500 | 71 | 208 | 0.0 | 0.0 | 0.00 | 0.00 | 0.00 | 51 | 1020.2 |
| 20260504011958 | 71 | 208 | 0.0 | 0.0 | 0.00 | 0.00 | 0.00 | 51 | 1019.9 |
| 20260504011454 | 72 | 208 | 0.0 | 1.0 | 0.00 | 0.00 | 0.00 | 50 | 1019.9 |
| 20260504010950 | 72 | 177 | 0.0 | 0.0 | 0.00 | 0.00 | 0.00 | 51 | 1019.8 |
| 20260504010446 | 73 | 177 | 0.0 | 1.0 | 0.00 | 0.00 | 0.00 | 49 | 1019.9 |
| 20260504005942 | 73 | 176 | 2.0 | 2.0 | 0.00 | 0.00 | 0.00 | 49 | 1019.9 |
| 20260504005439 | 73 | 210 | 1.0 | 1.0 | 0.00 | 0.00 | 0.00 | 48 | 1019.7 |
| 20260504004937 | 74 | 213 | 3.0 | 3.0 | 0.00 | 0.00 | 0.00 | 47 | 1019.8 |
| 20260504004434 | 74 | 186 | 5.0 | 6.0 | 0.00 | 0.00 | 0.00 | 46 | 1019.9 |
| 20260504003931 | 74 | 211 | 0.0 | 0.0 | 0.00 | 0.00 | 0.00 | 47 | 1019.9 |
| 20260504003427 | 74 | 201 | 2.0 | 2.0 | 0.00 | 0.00 | 0.00 | 46 | 1020.1 |
| 20260504002924 | 74 | 184 | 1.0 | 2.0 | 0.00 | 0.00 | 0.00 | 45 | 1019.8 |
| 20260504002421 | 74 | 214 | 3.0 | 5.0 | 0.00 | 0.00 | 0.00 | 45 | 1020.1 |
| 20260504001918 | 75 | 152 | 4.0 | 5.0 | 0.00 | 0.00 | 0.00 | 44 | 1020.0 |
| 20260504001416 | 75 | 197 | 1.0 | 2.0 | 0.00 | 0.00 | 0.00 | 44 | 1020.0 |
| 20260504000912 | 75 | 156 | 5.0 | 6.0 | 0.00 | 0.00 | 0.00 | 43 | 1020.0 |
| 20260504000409 | 75 | 203 | 1.0 | 1.0 | 0.00 | 0.00 | 0.00 | 45 | 1020.3 |
| 20260503235907 | 75 | 205 | 3.0 | 5.0 | 0.00 | 0.00 | 0.00 | 42 | 1020.1 |
| 20260503235405 | 75 | 171 | 5.0 | 7.0 | 0.00 | 0.00 | 0.00 | 42 | 1020.4 |
| 20260503234902 | 76 | 193 | 6.0 | 8.0 | 0.00 | 0.00 | 0.00 | 42 | 1020.4 |
| 20260503234359 | 76 | 160 | 5.0 | 7.0 | 0.00 | 0.00 | 0.00 | 41 | 1020.6 |
| 20260503233857 | 77 | 194 | 2.0 | 3.0 | 0.00 | 0.00 | 0.00 | 41 | 1020.6 |
| 20260503233353 | 77 | 142 | 6.0 | 7.0 | 0.00 | 0.00 | 0.00 | 40 | 1020.7 |
| 20260503232849 | 77 | 175 | 5.0 | 7.0 | 0.00 | 0.00 | 0.00 | 41 | 1020.3 |
| 20260503232347 | 77 | 150 | 4.0 | 5.0 | 0.00 | 0.00 | 0.00 | 41 | 1020.6 |
| 20260503231845 | 77 | 127 | 5.0 | 6.0 | 0.00 | 0.00 | 0.00 | 40 | 1020.3 |
| 20260503231341 | 77 | 209 | 2.0 | 2.0 | 0.00 | 0.00 | 0.00 | 41 | 1020.5 |
| 20260503230838 | 77 | 131 | 5.0 | 7.0 | 0.00 | 0.00 | 0.00 | 40 | 1020.6 |
| 20260503230335 | 77 | 209 | 2.0 | 2.0 | 0.00 | 0.00 | 0.00 | 41 | 1020.2 |
| 20260503225833 | 77 | 220 | 6.0 | 8.0 | 0.00 | 0.00 | 0.00 | 39 | 1020.2 |
| 20260503225328 | 77 | 177 | 6.0 | 7.0 | 0.00 | 0.00 | 0.00 | 40 | 1020.4 |
| 20260503224825 | 77 | 209 | 2.0 | 2.0 | 0.00 | 0.00 | 0.00 | 40 | 1020.5 |
| 20260503224322 | 78 | 169 | 3.0 | 3.0 | 0.00 | 0.00 | 0.00 | 41 | 1020.4 |
| 20260503223820 | 78 | 167 | 5.0 | 7.0 | 0.00 | 0.00 | 0.00 | 40 | 1020.6 |
| 20260503223317 | 78 | 218 | 2.0 | 3.0 | 0.00 | 0.00 | 0.00 | 40 | 1020.6 |
| 20260503222812 | 78 | 215 | 3.0 | 3.0 | 0.00 | 0.00 | 0.00 | 39 | 1020.6 |
| 20260503222311 | 79 | 129 | 0.0 | 1.0 | 0.00 | 0.00 | 0.00 | 37 | 1020.6 |
| 20260503221809 | 79 | 178 | 1.0 | 2.0 | 0.00 | 0.00 | 0.00 | 38 | 1021.0 |
| 20260503221307 | 79 | 197 | 3.0 | 5.0 | 0.00 | 0.00 | 0.00 | 37 | 1020.9 |
| 20260503220803 | 79 | 189 | 3.0 | 3.0 | 0.00 | 0.00 | 0.00 | 36 | 1020.9 |
| 20260503220300 | 79 | 157 | 4.0 | 7.0 | 0.00 | 0.00 | 0.00 | 38 | 1021.0 |
| 20260503215757 | 79 | 211 | 2.0 | 2.0 | 0.00 | 0.00 | 0.00 | 37 | 1021.2 |
| 20260503215254 | 80 | 220 | 5.0 | 7.0 | 0.00 | 0.00 | 0.00 | 36 | 1021.2 |
| 20260503214752 | 79 | 184 | 5.0 | 7.0 | 0.00 | 0.00 | 0.00 | 35 | 1021.5 |
| 20260503214248 | 80 | 212 | 0.0 | 1.0 | 0.00 | 0.00 | 0.00 | 37 | 1021.4 |
| 20260503213746 | 79 | 108 | 4.0 | 6.0 | 0.00 | 0.00 | 0.00 | 35 | 1021.4 |
| 20260503213243 | 80 | 122 | 5.0 | 6.0 | 0.00 | 0.00 | 0.00 | 36 | 1021.6 |
| 20260503212740 | 79 | 136 | 5.0 | 7.0 | 0.00 | 0.00 | 0.00 | 38 | 1021.7 |
| 20260503212238 | 80 | 127 | 11.0 | 13.0 | 0.00 | 0.00 | 0.00 | 35 | 1021.8 |
| 20260503211735 | 80 | 156 | 6.0 | 8.0 | 0.00 | 0.00 | 0.00 | 34 | 1021.9 |
| 20260503211231 | 80 | 171 | 5.0 | 6.0 | 0.00 | 0.00 | 0.00 | 34 | 1022.0 |
| 20260503210727 | 80 | 161 | 1.0 | 2.0 | 0.00 | 0.00 | 0.00 | 38 | 1022.2 |
| 20260503210225 | 80 | 188 | 6.0 | 8.0 | 0.00 | 0.00 | 0.00 | 35 | 1022.3 |
| 20260503205720 | 80 | 120 | 6.0 | 10.0 | 0.00 | 0.00 | 0.00 | 36 | 1022.4 |
| 20260503205216 | 80 | 193 | 1.0 | 2.0 | 0.00 | 0.00 | 0.00 | 37 | 1022.5 |
| 20260503204713 | 80 | 176 | 3.0 | 5.0 | 0.00 | 0.00 | 0.00 | 36 | 1022.3 |
| 20260503204211 | 81 | 180 | 5.0 | 9.0 | 0.00 | 0.00 | 0.00 | 34 | 1022.7 |
| 20260503203708 | 81 | 203 | 3.0 | 5.0 | 0.00 | 0.00 | 0.00 | 37 | 1022.6 |
| 20260503203205 | 80 | 146 | 6.0 | 7.0 | 0.00 | 0.00 | 0.00 | 35 | 1022.9 |
| 20260503202702 | 80 | 140 | 6.0 | 9.0 | 0.00 | 0.00 | 0.00 | 36 | 1022.8 |
| 20260503202200 | 79 | 197 | 6.0 | 8.0 | 0.00 | 0.00 | 0.00 | 35 | 1022.9 |
| 20260503201658 | 80 | 212 | 5.0 | 7.0 | 0.00 | 0.00 | 0.00 | 36 | 1023.3 |
| 20260503201155 | 80 | 196 | 2.0 | 2.0 | 0.00 | 0.00 | 0.00 | 38 | 1023.1 |
| 20260503200651 | 80 | 169 | 3.0 | 3.0 | 0.00 | 0.00 | 0.00 | 37 | 1023.1 |
| 20260503200148 | 80 | 155 | 6.0 | 8.0 | 0.00 | 0.00 | 0.00 | 37 | 1023.3 |
| 20260503195644 | 80 | 191 | 4.0 | 5.0 | 0.00 | 0.00 | 0.00 | 34 | 1023.2 |
| 20260503195142 | 79 | 183 | 7.0 | 8.0 | 0.00 | 0.00 | 0.00 | 37 | 1023.3 |
| 20260503194638 | 80 | 209 | 2.0 | 3.0 | 0.00 | 0.00 | 0.00 | 36 | 1023.5 |
| 20260503194134 | 80 | 210 | 5.0 | 7.0 | 0.00 | 0.00 | 0.00 | 37 | 1023.6 |
| 20260503193631 | 80 | 233 | 3.0 | 5.0 | 0.00 | 0.00 | 0.00 | 37 | 1023.7 |
| 20260503193126 | 80 | 156 | 4.0 | 7.0 | 0.00 | 0.00 | 0.00 | 37 | 1023.5 |
| 20260503192622 | 80 | 196 | 3.0 | 3.0 | 0.00 | 0.00 | 0.00 | 40 | 1023.6 |
| 20260503192118 | 80 | 215 | 6.0 | 8.0 | 0.00 | 0.00 | 0.00 | 36 | 1023.6 |
| 20260503191615 | 80 | 196 | 3.0 | 3.0 | 0.00 | 0.00 | 0.00 | 36 | 1023.5 |
| 20260503191112 | 80 | 221 | 1.0 | 1.0 | 0.00 | 0.00 | 0.00 | 37 | 1023.7 |
| 20260503190609 | 80 | 172 | 5.0 | 6.0 | 0.00 | 0.00 | 0.00 | 38 | 1023.6 |
| 20260503190106 | 81 | 181 | 4.0 | 5.0 | 0.00 | 0.00 | 0.00 | 34 | 1023.9 |
| 20260503185603 | 80 | 212 | 4.0 | 7.0 | 0.00 | 0.00 | 0.00 | 35 | 1024.2 |
| 20260503185102 | 80 | 218 | 0.0 | 0.0 | 0.00 | 0.00 | 0.00 | 37 | 1024.0 |
| 20260503184558 | 79 | 158 | 7.0 | 8.0 | 0.00 | 0.00 | 0.00 | 35 | 1024.3 |
| 20260503184055 | 80 | 176 | 4.0 | 5.0 | 0.00 | 0.00 | 0.00 | 34 | 1024.1 |
| 20260503183551 | 80 | 227 | 3.0 | 3.0 | 0.00 | 0.00 | 0.00 | 35 | 1024.5 |
| 20260503183049 | 79 | 228 | 2.0 | 3.0 | 0.00 | 0.00 | 0.00 | 38 | 1024.3 |
| 20260503182547 | 80 | 198 | 4.0 | 5.0 | 0.00 | 0.00 | 0.00 | 35 | 1024.7 |
| 20260503182045 | 80 | 197 | 3.0 | 5.0 | 0.00 | 0.00 | 0.00 | 35 | 1024.5 |
| 20260503181541 | 79 | 176 | 0.0 | 0.0 | 0.00 | 0.00 | 0.00 | 41 | 1024.8 |
| 20260503181038 | 79 | 185 | 6.0 | 7.0 | 0.00 | 0.00 | 0.00 | 37 | 1024.8 |
| 20260503180535 | 80 | 130 | 5.0 | 7.0 | 0.00 | 0.00 | 0.00 | 35 | 1025.0 |
| 20260503180032 | 79 | 209 | 0.0 | 1.0 | 0.00 | 0.00 | 0.00 | 40 | 1024.9 |
| 20260503175530 | 79 | 170 | 3.0 | 5.0 | 0.00 | 0.00 | 0.00 | 41 | 1025.2 |
| 20260503175027 | 79 | 177 | 3.0 | 7.0 | 0.00 | 0.00 | 0.00 | 42 | 1025.3 |
| 20260503174524 | 79 | 196 | 5.0 | 7.0 | 0.00 | 0.00 | 0.00 | 40 | 1025.5 |
| 20260503174020 | 79 | 224 | 1.0 | 2.0 | 0.00 | 0.00 | 0.00 | 39 | 1025.4 |
| 20260503173515 | 78 | 219 | 5.0 | 8.0 | 0.00 | 0.00 | 0.00 | 41 | 1025.8 |
| 20260503173012 | 78 | 164 | 6.0 | 9.0 | 0.00 | 0.00 | 0.00 | 44 | 1025.4 |
| 20260503172510 | 79 | 214 | 4.0 | 7.0 | 0.00 | 0.00 | 0.00 | 38 | 1025.2 |
| 20260503172006 | 78 | 225 | 3.0 | 5.0 | 0.00 | 0.00 | 0.00 | 42 | 1025.9 |
| 20260503171503 | 78 | 209 | 1.0 | 2.0 | 0.00 | 0.00 | 0.00 | 46 | 1025.6 |
| 20260503171000 | 78 | 191 | 6.0 | 7.0 | 0.00 | 0.00 | 0.00 | 42 | 1025.9 |
| 20260503170456 | 79 | 194 | 5.0 | 6.0 | 0.00 | 0.00 | 0.00 | 41 | 1026.0 |
| 20260503150849 | 71 | 205 | 0.0 | 0.0 | 0.00 | 0.00 | 0.00 | 65 | 1026.6 |
| 20260503150345 | 70 | 248 | 0.0 | 1.0 | 0.00 | 0.00 | 0.00 | 63 | 1026.8 |
| 20260503140309 | 66 | 239 | 1.0 | 1.0 | 0.00 | 0.00 | 0.00 | 71 | 1026.4 |
| 20260503131239 | 55 | 221 | 0.0 | 0.0 | 0.00 | 0.00 | 0.00 | 99 | 1026.5 |
| 20260503130736 | 55 | 240 | 0.0 | 0.0 | 0.00 | 0.00 | 0.00 | 99 | 1026.3 |
| 20260503130233 | 54 | 239 | 0.0 | 0.0 | 0.00 | 0.00 | 0.00 | 99 | 1026.4 |
| 20260503120159 | 51 | 205 | 0.0 | 0.0 | 0.00 | 0.00 | 0.00 | 99 | 1025.6 |
| 20260503110627 | 52 | 205 | 0.0 | 0.0 | 0.00 | 0.00 | 0.00 | 99 | 1025.1 |
| 20260503110124 | 52 | 205 | 0.0 | 0.0 | 0.00 | 0.00 | 0.00 | 99 | 1025.4 |
| 20260503081440 | 54 | 205 | 0.0 | 0.0 | 0.00 | 0.00 | 0.00 | 99 | 1025.0 |
| 20260503080937 | 55 | 205 | 0.0 | 0.0 | 0.00 | 0.00 | 0.00 | 99 | 1024.7 |
| 20260503080433 | 54 | 205 | 0.0 | 0.0 | 0.00 | 0.00 | 0.00 | 99 | 1024.8 |
| 20260503072910 | 55 | 205 | 0.0 | 0.0 | 0.00 | 0.00 | 0.00 | 97 | 1025.0 |
| 20260503072407 | 55 | 205 | 0.0 | 0.0 | 0.00 | 0.00 | 0.00 | 97 | 1025.1 |
| 20260503071904 | 55 | 205 | 0.0 | 0.0 | 0.00 | 0.00 | 0.00 | 97 | 1025.0 |
| 20260503071401 | 56 | 205 | 0.0 | 0.0 | 0.00 | 0.00 | 0.00 | 97 | 1025.2 |
| 20260503070856 | 55 | 205 | 0.0 | 0.0 | 0.00 | 0.00 | 0.00 | 96 | 1024.9 |
| 20260503070355 | 56 | 205 | 0.0 | 0.0 | 0.00 | 0.00 | 0.00 | 96 | 1025.1 |
| 20260503060320 | 56 | 205 | 0.0 | 0.0 | 0.00 | 0.00 | 0.00 | 90 | 1025.3 |
| 20260503054808 | 56 | 205 | 0.0 | 0.0 | 0.00 | 0.00 | 0.00 | 88 | 1025.2 |
| 20260503054304 | 57 | 205 | 0.0 | 0.0 | 0.00 | 0.00 | 0.00 | 87 | 1025.2 |
| 20260503053802 | 57 | 205 | 0.0 | 0.0 | 0.00 | 0.00 | 0.00 | 87 | 1025.2 |
| 20260503053300 | 57 | 205 | 0.0 | 0.0 | 0.00 | 0.00 | 0.00 | 87 | 1025.3 |
| 20260503052756 | 57 | 205 | 0.0 | 0.0 | 0.00 | 0.00 | 0.00 | 87 | 1025.4 |
| 20260503052253 | 56 | 205 | 0.0 | 0.0 | 0.00 | 0.00 | 0.00 | 87 | 1025.3 |
| 20260503051748 | 56 | 205 | 0.0 | 0.0 | 0.00 | 0.00 | 0.00 | 87 | 1025.3 |
| 20260503051246 | 57 | 205 | 0.0 | 0.0 | 0.00 | 0.00 | 0.00 | 86 | 1025.4 |
| 20260503050742 | 57 | 205 | 0.0 | 0.0 | 0.00 | 0.00 | 0.00 | 86 | 1025.2 |
| 20260503050239 | 57 | 205 | 0.0 | 0.0 | 0.00 | 0.00 | 0.00 | 86 | 1025.1 |
| 20260503045736 | 57 | 205 | 0.0 | 0.0 | 0.00 | 0.00 | 0.00 | 86 | 1025.2 |
| 20260503045234 | 57 | 205 | 0.0 | 0.0 | 0.00 | 0.00 | 0.00 | 87 | 1025.2 |
| 20260503044730 | 57 | 205 | 0.0 | 0.0 | 0.00 | 0.00 | 0.00 | 87 | 1025.1 |
| 20260503044228 | 58 | 205 | 0.0 | 0.0 | 0.00 | 0.00 | 0.00 | 87 | 1025.1 |
| 20260503043724 | 58 | 205 | 0.0 | 0.0 | 0.00 | 0.00 | 0.00 | 86 | 1025.3 |
| 20260503043222 | 59 | 205 | 0.0 | 0.0 | 0.00 | 0.00 | 0.00 | 85 | 1025.3 |
| 20260503042717 | 59 | 205 | 0.0 | 0.0 | 0.00 | 0.00 | 0.00 | 84 | 1025.1 |
| 20260503042214 | 59 | 205 | 0.0 | 0.0 | 0.00 | 0.00 | 0.00 | 82 | 1025.2 |
| 20260503041710 | 59 | 205 | 0.0 | 0.0 | 0.00 | 0.00 | 0.00 | 81 | 1025.2 |
| 20260503041208 | 59 | 205 | 0.0 | 0.0 | 0.00 | 0.00 | 0.00 | 80 | 1025.0 |
| 20260503040705 | 58 | 205 | 0.0 | 0.0 | 0.00 | 0.00 | 0.00 | 81 | 1025.0 |
| 20260503040203 | 58 | 205 | 0.0 | 0.0 | 0.00 | 0.00 | 0.00 | 84 | 1024.9 |
| 20260503035659 | 58 | 205 | 0.0 | 0.0 | 0.00 | 0.00 | 0.00 | 84 | 1024.8 |
| 20260503035157 | 59 | 205 | 0.0 | 0.0 | 0.00 | 0.00 | 0.00 | 84 | 1024.9 |